Home > Weather > Lewiston > Past weeks

Flag for USA Past Weather in Lewiston, Idaho, USA — Yesterday and Last 2 Weeks

Now
79 °F

Sunny.


Feels Like: 79 °F
Forecast: 67 / 99 °F
Wind: No wind

Location: Lewiston-Nez Perce County Airport

Current Time: Jul 26, 2016 at 11:10:51 AM

Latest Report: Jul 26, 2016 at 9:56 AM


Visibility: 10 mi

Pressure: 29.98 "Hg

Humidity: 39%

Dew Point: 52 °F

Location of LewistonLocation

Past Weather in Lewiston — Graph

°F

Lewiston Temperature Yesterday

Maximum temperature yesterday: 98 °F (at 5:56 PM)
Minimum temperature yesterday: 64 °F (at 3:56 AM)
Average temperature yesterday: 81 °F

High & Low Weather Summary for the Past Weeks

 TemperatureHumidityPressure
High99 °F (Jul 21, 3:56 PM)87% (Jul 20, 5:56 AM)30.16 "Hg (Jul 20, 5:56 AM)
Low56 °F (Jul 12, 2:56 AM)15% (Jul 21, 4:56 PM)29.79 "Hg (Jul 21, 5:56 PM)
Average73 °F44%29.97 "Hg
* Reported Jul 11 9:56 AM — Jul 26 9:56 AM, Lewiston, Weather by CustomWeather, © 2016

Note: Actual official high and low records may vary slightly from our data, if they occured in-between our weather recording intervals... More about our weather records

Advertising

Lewiston Weather History for the Previous 24 Hours

Scroll right to see more
 ConditionsComfort  
Time TempWeatherWind HumidityBarometerVisibility
9:56 AM
Tue, Jul 26
79 °FSunny.No wind39%29.98 "Hg10 mi
8:56 AM76 °FSunny.5 mph45%29.98 "Hg10 mi
7:56 AM72 °FSunny.5 mph49%29.97 "Hg10 mi
6:56 AM69 °FSunny.No wind55%29.96 "Hg10 mi
5:56 AM66 °FClear.No wind56%29.94 "Hg10 mi
4:56 AM67 °FClear.3 mph53%29.93 "Hg10 mi
3:56 AM69 °FClear.No wind45%29.92 "Hg10 mi
2:56 AM71 °FClear.3 mph41%29.90 "Hg10 mi
1:56 AM72 °FClear.No wind40%29.89 "Hg10 mi
12:56 AM75 °FClear.3 mph36%29.88 "Hg10 mi
11:56 PM
Mon, Jul 25
79 °FClear.3 mph31%29.88 "Hg10 mi
10:56 PM81 °FClear.5 mph28%29.86 "Hg10 mi
9:56 PM83 °FClear.5 mph26%29.87 "Hg10 mi
8:56 PM88 °FSunny.5 mph22%29.86 "Hg10 mi
7:56 PM93 °FSunny.7 mph19%29.85 "Hg10 mi
6:56 PM96 °FSunny.8 mph17%29.84 "Hg10 mi
5:56 PM98 °FSunny.5 mph16%29.85 "Hg10 mi
4:56 PM96 °FSunny.No wind18%29.86 "Hg10 mi
3:56 PM97 °FSunny.No wind18%29.88 "Hg10 mi
2:56 PM95 °FSunny.3 mph21%29.90 "Hg10 mi
1:56 PM93 °FSunny.6 mph23%29.92 "Hg10 mi
12:56 PM92 °FSunny.6 mph23%29.94 "Hg10 mi
11:56 AM88 °FSunny.5 mph26%29.95 "Hg10 mi
Weather by CustomWeather, © 2016

See weather overviewHow to use our weather pages